Chattanooga, TN

2:09 PM EDT on June 25, 2017 (GMT -0400)
Lovell

Weather History for KCHA - February, 2012

Change the Weather History Date:

Friday, February 10, 2012

  Actual Average Record
Temperature  
Mean Temperature 42 °F 43 °F  
Max Temperature 50 °F 54 °F 77 °F (1932)
Min Temperature 33 °F 33 °F 1 °F (1899)
Degree Days  
Heating Degree Days 23 22  
Month to date heating degree days 159 226  
Since 1 July heating degree days 1879 2271  
Moisture  
Dew Point 31 °F    
Average Humidity 68    
Maximum Humidity 89    
Minimum Humidity 46    
Precipitation  
Precipitation 0.00 in 0.17 in 2.54 in (1994)
Month to date precipitation 1.30 1.71  
Year to date precipitation 8.40 6.62  
Snow  
Snow 0.00 in 0.00 in - ()
Month to date snowfall 0.0 0.2  
Since 1 July snowfall T 2.2  
Snow Depth 0.00 in    
Sea Level Pressure  
Sea Level Pressure 30.09 in    
Wind  
Wind Speed 2 mph (WSW)    
Max Wind Speed 13 mph    
Max Gust Speed 18 mph    
Visibility 10 miles    
Events      
T = Trace of Precipitation, MM = Missing Value Source: NWS Daily Summary

Daily Weather History Graph

Daily Weather History Graph

Search for Another Location

Airport or City:

Trip Planner

Search our weather history database for the weather conditions in past years. The results will help you decide how hot, cold, wet, or windy it might be!

Date:

Astronomy

Feb. 10, 2012 Rise Set
Actual Time 7:32 AM EST 6:18 PM EST
Civil Twilight 7:06 AM EST 6:44 PM EST
Nautical Twilight 6:36 AM EST 7:14 PM EST
Astronomical Twilight 6:06 AM EST 7:43 PM EST
Moon 9:43 PM EST (2/10) 8:50 AM EST (2/10)
Length of Visible Light 11h 38m
Length of Day
10h 45m
Waning Gibbous, 90% of the Moon is Illuminated
Feb 10
Waning Gibbous
Feb 14
Last Quarter
Feb 21
New
Feb 29
First Quarter
Mar 8
Full

Hourly Weather History & Observations

Time (EST) Temp. Windchill Dew Point Humidity Pressure Visibility Wind Dir Wind Speed Gust Speed Precip Events Conditions
12:53 AM 35.1 °F - 28.9 °F 78% 30.21 in 10.0 mi Calm Calm - N/A   Partly Cloudy
1:53 AM 33.1 °F - 28.9 °F 85% 30.20 in 10.0 mi Calm Calm - N/A   Scattered Clouds
2:53 AM 34.0 °F - 28.9 °F 82% 30.19 in 10.0 mi Calm Calm - N/A   Mostly Cloudy
3:53 AM 33.1 °F - 28.9 °F 85% 30.17 in 10.0 mi Calm Calm - N/A   Mostly Cloudy
4:53 AM 34.0 °F - 28.9 °F 82% 30.16 in 10.0 mi Calm Calm - N/A   Mostly Cloudy
5:53 AM 33.1 °F - 28.9 °F 85% 30.16 in 10.0 mi Calm Calm - N/A   Mostly Cloudy
6:53 AM 33.1 °F - 28.9 °F 85% 30.17 in 10.0 mi Calm Calm - N/A   Mostly Cloudy
7:53 AM 34.0 °F - 30.0 °F 85% 30.17 in 10.0 mi Calm Calm - N/A   Mostly Cloudy
8:53 AM 35.1 °F - 30.9 °F 85% 30.17 in 10.0 mi Calm Calm - N/A   Mostly Cloudy
9:53 AM 37.9 °F - 32.0 °F 79% 30.16 in 10.0 mi Calm Calm - N/A   Mostly Cloudy
10:53 AM 39.9 °F - 30.9 °F 70% 30.14 in 10.0 mi Calm Calm - N/A   Mostly Cloudy
11:53 AM 42.1 °F - 30.9 °F 65% 30.12 in 10.0 mi Calm Calm - N/A   Overcast
12:53 PM 45.0 °F - 32.0 °F 60% 30.07 in 10.0 mi Calm Calm - N/A   Overcast
1:53 PM 46.0 °F 44.8 °F 32.0 °F 58% 30.08 in 10.0 mi SW 3.5 mph - N/A   Overcast
2:53 PM 48.0 °F - 32.0 °F 54% 30.04 in 10.0 mi Calm Calm - N/A   Mostly Cloudy
3:53 PM 50.0 °F - 32.0 °F 50% 30.02 in 10.0 mi Variable 3.5 mph - N/A   Mostly Cloudy
4:53 PM 50.0 °F - 30.9 °F 48% 30.02 in 10.0 mi West 4.6 mph - N/A   Overcast
5:53 PM 48.0 °F - 30.0 °F 50% 30.01 in 10.0 mi West 4.6 mph - N/A   Overcast
6:53 PM 46.9 °F - 30.9 °F 54% 30.01 in 10.0 mi WNW 5.8 mph - N/A   Overcast
7:53 PM 46.0 °F 42.5 °F 32.0 °F 58% 30.01 in 10.0 mi West 6.9 mph - N/A   Overcast
8:53 PM 44.1 °F - 33.1 °F 65% 30.01 in 10.0 mi Calm Calm - N/A   Overcast
9:53 PM 44.1 °F 41.5 °F 33.1 °F 65% 30.03 in 10.0 mi WSW 4.6 mph - N/A   Overcast
10:53 PM 43.0 °F 38.2 °F 34.0 °F 71% 30.02 in 10.0 mi SW 8.1 mph - N/A   Overcast
11:25 PM 42.8 °F 39.3 °F 33.8 °F 70% 30.01 in 10.0 mi West 5.8 mph - N/A   Overcast
11:53 PM 42.1 °F 37.7 °F 34.0 °F 73% 30.01 in 10.0 mi WSW 6.9 mph 16.1 mph N/A   Overcast